Huntington, WV

11:28 PM EDT on June 27, 2017 (GMT -0400)
Tri-State / Ferguson

Weather History for KHTS - October, 2012

Change the Weather History Date:

Tuesday, October 2, 2012

  Actual Average Record
Temperature  
Mean Temperature 72 °F 61 °F  
Max Temperature 84 °F 73 °F 92 °F (1953)
Min Temperature 60 °F 50 °F 31 °F (1946)
Degree Days  
Heating Degree Days 0 5  
Month to date heating degree days 8 10  
Since 1 July heating degree days 78 68  
Cooling Degree Days 7 2  
Month to date cooling degree days 7 4  
Year to date cooling degree days 1312 1115  
Growing Degree Days 20 (Base 50)    
Moisture  
Dew Point 64 °F    
Average Humidity 79    
Maximum Humidity 100    
Minimum Humidity 58    
Precipitation  
Precipitation 0.12 in 0.09 in 1.34 in (1911)
Month to date precipitation 0.37 0.17  
Year to date precipitation 32.30 33.20  
Snow  
Snow 0.00 in - - ()
Month to date snowfall 0.0  
Since 1 September snowfall 0.0  
Snow Depth 0.00 in    
Sea Level Pressure  
Sea Level Pressure 29.75 in    
Wind  
Wind Speed 4 mph (South)    
Max Wind Speed 12 mph    
Max Gust Speed 18 mph    
Visibility 9 miles    
Events Rain    
T = Trace of Precipitation, MM = Missing Value Source: NWS Daily Summary

Daily Weather History Graph

Daily Weather History Graph

Search for Another Location

Airport or City:

Trip Planner

Search our weather history database for the weather conditions in past years. The results will help you decide how hot, cold, wet, or windy it might be!

Date:

Astronomy

Oct. 02, 2012 Rise Set
Actual Time 7:27 AM EDT 7:10 PM EDT
Civil Twilight 7:00 AM EDT 7:37 PM EDT
Nautical Twilight 6:30 AM EDT 8:07 PM EDT
Astronomical Twilight 5:59 AM EDT 8:38 PM EDT
Moon 8:25 PM EDT (10/2) 9:50 AM EDT (10/2)
Length of Visible Light 12h 36m
Length of Day
11h 43m
Waning Gibbous, 94% of the Moon is Illuminated
Oct 2
Waning Gibbous
Oct 8
Last Quarter
Oct 15
New
Oct 21
First Quarter
Oct 29
Full

Hourly Weather History & Observations

Time (EDT) Temp. Heat Index Dew Point Humidity Pressure Visibility Wind Dir Wind Speed Gust Speed Precip Events Conditions
12:51 AM 59.0 °F - 57.9 °F 96% 29.70 in 6.0 mi SE 4.6 mph - 0.01 in Rain Light Rain
1:42 AM 62.6 °F - 60.8 °F 94% 29.72 in 2.5 mi SSE 4.6 mph - 0.09 in Rain Heavy Rain
1:51 AM 63.0 °F - 61.0 °F 93% 29.71 in 3.0 mi SSE 5.8 mph - 0.12 in Rain Light Rain
2:51 AM 62.6 °F - 60.8 °F 94% 29.70 in 9.0 mi ESE 4.6 mph - N/A   Overcast
3:51 AM 63.0 °F - 61.0 °F 93% 29.70 in 10.0 mi ESE 6.9 mph - 0.00 in   Overcast
4:51 AM 63.0 °F - 62.1 °F 97% 29.70 in 10.0 mi Variable 3.5 mph - 0.00 in   Overcast
5:51 AM 63.0 °F - 62.1 °F 97% 29.70 in 10.0 mi East 3.5 mph - N/A   Overcast
6:51 AM 64.0 °F - 62.1 °F 93% 29.71 in 10.0 mi ESE 4.6 mph - N/A   Overcast
7:51 AM 64.0 °F - 62.1 °F 93% 29.73 in 10.0 mi Calm Calm - N/A   Overcast
8:51 AM 64.9 °F - 63.0 °F 93% 29.75 in 10.0 mi ESE 3.5 mph - N/A   Overcast
9:51 AM 70.0 °F - 66.0 °F 87% 29.75 in 10.0 mi SE 5.8 mph - N/A   Partly Cloudy
10:51 AM 73.9 °F - 66.0 °F 76% 29.74 in 10.0 mi Variable 5.8 mph - N/A   Clear
11:51 AM 75.0 °F - 66.9 °F 76% 29.75 in 10.0 mi Variable 3.5 mph - N/A   Mostly Cloudy
12:51 PM 78.1 °F - 68.0 °F 71% 29.74 in 10.0 mi East 5.8 mph - N/A   Mostly Cloudy
1:51 PM 79.0 °F - 66.9 °F 66% 29.72 in 10.0 mi Variable 6.9 mph - N/A   Scattered Clouds
2:51 PM 78.1 °F - 66.9 °F 68% 29.72 in 10.0 mi Calm Calm - N/A   Mostly Cloudy
3:51 PM 81.0 °F 83.8 °F 68.0 °F 65% 29.71 in 10.0 mi Calm Calm - N/A   Scattered Clouds
4:51 PM 81.0 °F 83.0 °F 66.0 °F 60% 29.72 in 10.0 mi Calm Calm - N/A   Partly Cloudy
5:51 PM 82.0 °F 84.5 °F 66.9 °F 60% 29.74 in 10.0 mi WSW 4.6 mph - N/A   Partly Cloudy
6:51 PM 77.0 °F - 66.9 °F 71% 29.77 in 10.0 mi WSW 12.7 mph 18.4 mph N/A   Mostly Cloudy
7:51 PM 72.0 °F - 66.0 °F 81% 29.80 in 10.0 mi West 4.6 mph - 0.00 in   Clear
8:51 PM 71.1 °F - 63.0 °F 75% 29.83 in 10.0 mi West 5.8 mph - N/A   Scattered Clouds
9:51 PM 70.0 °F - 63.0 °F 78% 29.86 in 10.0 mi West 3.5 mph - N/A   Overcast
10:51 PM 69.1 °F - 63.0 °F 81% 29.88 in 10.0 mi SW 4.6 mph - N/A   Mostly Cloudy
11:51 PM 68.0 °F - 62.1 °F 81% 29.90 in 10.0 mi WSW 5.8 mph - N/A   Overcast